#timestamp,LO_Frequency,Hit,StdDev 
1455242415.7,286046987.9,N
1455242435.5,286046988.1,N
1455242455.4,286046988.0,N
1455242475.2,286046988.3,N
1455242495.0,286046985.7,N
1455242495.9,286046985.7,N
1455242515.8,286046986.3,N
1455242535.6,286046984.7,N
1455242555.4,286046985.4,N
1455242575.3,286046980.8,Y
1455242595.1,286046989.2,P
1455242596.0,286046989.2,P
1455242615.8,286046990.5,P
1455242635.7,286046988.2,Y
1455242655.5,286046999.5,P
1455242675.3,286046998.9,N
1455242695.2,286046997.7,N
1455242715.9,286046998.8,N
1455242735.7,286046999.6,N
1455242755.6,286046993.5,N
1455242775.4,286046994.2,N
1455242795.2,286046991.7,N
1455242815.1,286046991.5,N
1455242816.0,286046991.5,N
1455242835.8,286046989.7,N
1455242855.6,286046989.8,N
1455242875.4,286046989.5,N
1455242895.3,286046987.7,Y
1455242915.1,286046994.0,P
1455242935.9,286046991.8,P
1455242955.7,286046991.8,P
1455242975.5,286046993.1,Y
1455242995.4,286046998.9,P
1455243015.2,286046997.3,N
1455243035.0,286046996.7,N
1455243035.9,286046996.7,N
1455243055.7,286046996.9,N
1455243075.6,286046997.0,N
1455243095.4,286047000.0,N
1455243115.2,286046996.6,N
1455243135.1,286046997.3,N
1455243136.0,286046997.3,N
1455243155.8,286046999.0,N
1455243175.6,286046997.6,N
1455243195.5,286046998.3,N
1455243215.3,286047001.2,N
1455243235.1,286047001.1,N
1455243255.9,286046998.3,N
1455243275.7,286046998.1,N
1455243295.5,286046998.1,N
1455243315.4,286046998.6,N
1455243335.2,286046997.2,N
1455243355.0,286046995.0,N
1455243355.9,286046995.0,N
1455243375.8,286046998.0,N
1455243395.6,286046996.2,N
1455243415.4,286046991.8,Y
1455243435.3,286046997.1,P
1455243455.1,286046996.7,P
1455243456.0,286046996.7,P
1455243475.8,286046997.1,Y
1455243495.7,286046998.1,P
1455243515.5,286047000.0,N
1455243535.3,286047001.6,N
1455243555.2,286046999.7,N
1455243575.9,286046999.7,N
1455243595.7,286047002.8,N
1455243615.6,286046999.8,N
1455243635.4,286046999.6,N
1455243655.2,286046999.2,N
1455243675.0,286046998.1,N
1455243675.9,286046998.1,N
1455243695.8,286047002.5,N
1455243715.6,286047001.0,N
1455243735.4,286046996.8,N
1455243755.3,286046995.4,N
1455243775.1,286046997.9,N
1455243795.8,286046995.6,N
1455243815.7,286046993.4,Y
1455243835.5,286046995.7,P
1455243855.3,286046995.1,N
1455243875.2,286046997.7,N
1455243895.9,286046995.6,N
1455243915.7,286046994.3,Y
1455243935.6,286046998.4,P
1455243955.4,286046999.6,N
1455243975.2,286046998.3,N
1455243995.1,286046997.5,N
1455243996.0,286046997.5,N
1455244015.8,286046999.0,N
1455244035.6,286046999.0,N
1455244055.5,286047000.6,N
1455244075.3,286047000.8,N
1455244095.1,286046998.9,N
1455244115.9,286046998.8,N
1455244135.7,286047001.1,N
1455244155.5,286046999.4,N
1455244175.3,286047001.1,N
1455244195.2,286046998.4,N
1455244215.0,286046999.0,N
1455244215.9,286046999.0,N
1455244235.7,286046998.1,N
1455244255.6,286047000.0,N
1455244275.4,286047004.4,Y
1455244295.2,286047004.4,P
1455244315.1,286047000.2,N
1455244316.0,286047000.2,N
1455244335.8,286046999.9,N
1455244355.6,286047002.4,N
1455244375.5,286047002.7,N
1455244395.3,286047001.0,N
1455244415.1,286046996.5,N
1455244435.9,286047000.7,N
1455244455.7,286047000.8,N
1455244475.5,286046999.1,N
1455244495.4,286046997.2,N
1455244515.2,286047000.0,N
1455244535.0,286046998.5,N
1455244535.9,286046998.5,N
1455244555.8,286046998.8,N
1455244575.6,286046998.5,N
1455244595.4,286046998.9,N
1455244615.2,286046996.9,N
1455244635.1,286046999.2,N
1455244636.0,286046999.2,N
1455244655.8,286046997.7,N
1455244675.6,286047000.9,N
1455244695.5,286046999.8,N
1455244715.3,286047005.4,Y
1455244735.1,286047000.2,P
1455244755.9,286046998.5,P
1455244775.7,286046997.1,P
1455244795.5,286046996.8,N
1455244815.4,286046997.8,N
1455244835.2,286046996.1,Y
1455244855.0,286046997.2,P
1455244855.9,286046997.2,P
1455244875.8,286047001.2,N
1455244895.6,286047002.8,N
1455244915.4,286047005.0,N
1455244935.3,286047009.8,Y
1455244955.1,286047009.8,P
1455244956.0,286047009.8,N
1455244975.8,286047010.8,N
1455244995.7,286047008.6,N
1455245015.5,286047009.3,N
1455245035.3,286047011.9,Y
1455245055.2,286047005.2,P
1455245075.9,286047005.3,P
1455245095.7,286047005.4,P
1455245115.6,286047003.4,N
1455245135.4,286047006.5,Y
1455245155.2,286047000.5,P
1455245175.1,286047001.7,N
1455245176.0,286047001.7,N
1455245195.8,286047004.3,N
1455245215.6,286047003.9,N
1455245235.5,286046998.1,N
1455245255.3,286046996.7,N
1455245275.1,286046996.5,N
1455245295.8,286046997.7,N
1455245315.7,286046999.2,N
1455245335.5,286046997.1,N
1455245355.3,286046995.6,N
1455245375.2,286046999.3,N
1455245395.0,286046998.9,N
1455245395.9,286046998.9,N
1455245415.7,286046996.6,N
1455245435.6,286046996.8,N
1455245455.4,286046996.3,N
1455245475.2,286046996.0,N
1455245495.1,286046993.5,N
1455245496.0,286046993.5,N
1455245515.8,286046997.3,N
1455245535.6,286047000.4,N
1455245555.5,286046998.5,N
1455245575.3,286047001.7,N
1455245595.1,286046998.6,N
1455245615.9,286047001.0,N
1455245635.7,286046997.4,N
1455245655.5,286046995.8,N
1455245675.3,286046996.2,N
1455245695.2,286046992.7,N
1455245715.0,286046994.4,N
1455245715.9,286046994.4,N
1455245735.7,286046993.1,N
1455245755.6,286046993.2,N
1455245775.4,286046988.9,Y
1455245795.2,286046995.1,P
1455245815.1,286046994.4,P
1455245816.0,286046994.4,P
1455245835.8,286046994.0,Y
1455245855.7,286046999.9,P
1455245875.5,286047001.2,N
1455245895.3,286046998.5,N
1455245915.1,286047000.8,N
1455245935.9,286047001.1,N
1455245955.7,286046999.1,N
1455245975.5,286047001.2,N
1455245995.4,286046999.3,N
1455242415.6,286047001.9,N
1455242435.4,286046999.7,N
1455242455.3,286047004.1,N
1455242475.1,286047001.6,N
1455242495.8,286047002.3,N
1455242515.7,286047001.7,N
1455242535.5,286047002.1,N
1455242555.3,286047001.2,N
1455242575.2,286046996.6,N
1455242595.9,286046997.8,N
1455242615.7,286046996.6,N
1455242635.6,286046996.5,N
1455242655.4,286046997.7,N
1455242675.2,286046995.1,N
1455242695.1,286046997.6,N
1455242696.0,286046997.6,N
1455242715.8,286046999.3,N
1455242735.6,286047001.5,N
1455242755.5,286047004.1,N
1455242775.3,286047001.2,N
1455242795.1,286047002.4,N
1455242815.8,286047002.4,N
1455242835.7,286047003.1,N
1455242855.5,286047004.1,N
1455242875.3,286047003.6,N
1455242895.2,286047004.0,N
1455242915.9,286047004.2,N
1455242935.7,286047004.2,N
1455242955.6,286047004.7,N
1455242975.4,286047002.0,N
1455242995.2,286047002.0,N
1455243015.1,286047001.6,N
1455243016.0,286047001.6,N
1455243035.8,286047002.9,N
1455243055.6,286047005.6,N
1455243075.5,286047005.9,N
1455243095.3,286047003.8,N
1455243115.1,286047003.2,N
1455243135.8,286047003.8,N
1455243155.7,286047001.5,N
1455243175.5,286047004.2,N
1455243195.3,286047002.3,N
1455243215.2,286047000.0,N
1455243235.9,286047000.4,N
1455243255.7,286046999.7,N
1455243275.6,286047000.9,N
1455243295.4,286047004.0,N
1455243315.2,286046998.6,N
1455243335.1,286046998.6,N
1455243336.0,286046998.6,N
1455243355.8,286046998.9,N
1455243375.6,286046995.4,N
1455243395.5,286046997.5,N
1455243415.3,286046997.2,N
1455243435.1,286046995.0,N
1455243455.8,286046997.4,N
1455243475.7,286047000.8,N
1455243495.5,286047000.2,N
1455243515.3,286046999.4,N
1455243535.2,286046999.8,N
1455243555.9,286047004.3,N
1455243575.7,286047000.3,N
1455243595.6,286046996.8,N
1455243615.4,286046993.7,N
1455243635.2,286046990.3,Y
1455243655.1,286046985.9,P
1455243656.0,286046985.9,N
1455243675.8,286046981.3,N
1455243695.6,286046979.8,N
1455243715.5,286046974.1,Y
1455243735.3,286046989.4,P
1455243755.1,286046986.8,P
1455243775.9,286046983.0,P
1455243795.7,286046979.3,Y
1455243815.5,286046997.6,P
1455243835.4,286046993.6,N
1455243855.2,286046996.2,N
1455243875.0,286046990.1,N
1455243875.9,286046990.1,N
1455243895.8,286046987.0,Y
1455243915.6,286046998.9,P
1455243935.4,286046998.9,N
1455243955.3,286046996.0,N
1455243975.1,286046995.5,N
1455243976.0,286046995.5,N
1455243995.8,286046997.6,N
1455244015.7,286046993.4,Y
1455244035.5,286047002.0,P
1455244055.3,286046999.3,N
1455244075.2,286046998.1,N
1455244095.9,286046999.2,N
1455244115.7,286047000.1,N
1455244135.6,286046998.7,N
1455244155.4,286047000.0,N
1455244175.2,286047002.4,N
1455244195.0,286047000.7,N
1455244195.9,286047000.7,N
1455244215.8,286047000.1,N
1455244235.6,286047000.4,N
1455244255.4,286046999.6,N
1455244275.3,286047001.1,N
1455244295.1,286047008.7,Y
1455244315.8,286047006.1,P
1455244335.7,286047010.1,P
1455244355.5,286047012.2,N
1455244375.3,286047013.6,N
1455244395.2,286047020.2,Y
1455244415.0,286047010.8,P
1455244415.9,286047010.8,P
1455244435.7,286047006.2,P
1455244455.6,286047010.8,Y
1455244475.4,286046999.5,P
1455244495.2,286046996.9,N
1455244515.1,286047004.3,N
1455244516.0,286047004.3,N
1455244535.8,286047003.8,N
1455244555.6,286047001.5,N
1455244575.5,286047003.1,N
1455244595.3,286047003.3,N
1455244615.1,286047004.8,N
1455244635.9,286047005.6,N
1455244655.7,286047006.1,N
1455244675.5,286047006.5,N
1455244695.3,286047004.9,N
1455244715.2,286047002.9,N
1455244735.0,286047004.6,N
1455244735.9,286047004.6,N
1455244755.8,286047008.8,Y
1455244775.6,286047004.9,P
1455244795.4,286047007.5,P
1455244815.2,286047003.1,N
1455244835.1,286047005.5,Y
1455244836.0,286047005.5,P
1455244855.8,286047002.2,P
1455244875.7,286047004.2,N
1455244895.5,286047002.1,N
1455244915.3,286047001.9,N
1455244935.2,286047004.4,Y
1455244955.9,286046999.8,P
1455244975.7,286047001.3,N
1455244995.5,286047002.7,N
1455245015.4,286047000.4,N
1455245035.2,286047000.5,N
1455245055.0,286046998.7,N
1455245055.9,286046998.7,N
1455245075.8,286046999.8,N
1455245095.6,286047002.5,N
1455245115.4,286047001.1,N
1455245135.3,286046998.6,N
1455245155.1,286047000.8,N
1455245156.0,286047000.8,N
1455245175.8,286047001.1,N
1455245195.7,286046998.7,N
1455245215.5,286046999.1,N
1455245235.3,286047000.9,N
1455245255.2,286046998.2,N
1455245275.9,286047001.0,N
1455245295.7,286046997.6,N
1455245315.5,286046996.4,N
1455245335.4,286046995.1,N
1455245355.2,286046995.5,N
1455245375.0,286046997.9,N
1455245375.9,286046997.9,N
1455245395.8,286046996.0,N
1455245415.6,286046993.4,Y
1455245435.4,286046996.7,P
1455245455.3,286046995.9,P
1455245475.1,286046996.1,N
1455245495.8,286046996.6,N
1455245515.7,286046998.7,N
1455245535.5,286046999.4,N
1455245555.3,286046998.1,N
1455245575.2,286046997.0,N
1455245595.9,286046999.3,N
1455245615.7,286046998.1,N
1455245635.6,286047002.3,N
1455245655.4,286046999.8,N
1455245675.2,286047002.3,N
1455245695.1,286047001.3,N
1455245696.0,286047001.3,N
1455245715.8,286047004.2,N
1455245735.6,286047002.9,N
1455245755.4,286047007.1,N
1455245775.3,286047009.2,Y
1455245795.1,286047010.4,P
1455245815.9,286047007.7,N
1455245835.7,286047010.0,N
1455245855.5,286047009.1,N
1455245875.3,286047006.2,N
1455245895.2,286047009.8,N
1455245915.9,286047011.8,Y
1455245935.7,286047005.6,P
1455245955.6,286047007.4,P
1455245975.4,286047004.5,P
1455245995.2,286047009.2,Y
1455242415.1,286047005.6,Y
1455242435.8,286047005.5,P
1455242455.7,286047004.1,N
1455242475.5,286047006.0,P
1455242495.3,286047005.1,N
1455242515.2,286047007.0,Y
1455242535.0,286047005.9,P
1455242535.9,286047005.9,P
1455242555.7,286047000.2,N
1455242575.6,286046998.4,N
1455242595.4,286047002.0,N
1455242615.2,286047002.7,N
1455242635.1,286047004.3,N
1455242636.0,286047004.3,N
1455242655.8,286047001.8,N
1455242675.6,286047002.8,N
1455242695.5,286047000.3,N
1455242715.3,286047003.5,N
1455242735.1,286047003.4,N
1455242755.9,286047001.6,N
1455242775.7,286047004.2,N
1455242795.5,286047004.0,N
1455242815.3,286047001.4,N
1455242835.2,286047002.0,N
1455242855.0,286047002.6,N
1455242855.9,286047002.6,N
1455242875.7,286046998.1,N
1455242895.6,286046996.5,N
1455242915.4,286046993.5,N
1455242935.2,286046995.9,N
1455242955.1,286046995.7,N
1455242956.0,286046995.7,N
1455242975.8,286046995.1,N
1455242995.6,286046999.6,N
1455243015.5,286046997.1,N
1455243035.3,286047000.0,N
1455243055.1,286046999.6,N
1455243075.9,286046995.7,N
1455243095.7,286046995.2,N
1455243115.5,286046994.9,N
1455243135.4,286046997.7,N
1455243155.2,286046993.3,N
1455243175.0,286046997.3,N
1455243175.9,286046997.3,N
1455243195.8,286046993.7,N
1455243215.6,286046991.7,N
1455243235.4,286046990.7,N
1455243255.3,286046994.7,N
1455243275.1,286046992.0,N
1455243276.0,286046992.0,N
1455243295.8,286046994.8,N
1455243315.6,286046990.6,N
1455243335.5,286046990.1,N
1455243355.3,286046992.3,N
1455243375.1,286046992.2,N
1455243395.9,286046994.4,N
1455243415.7,286046993.9,N
1455243435.5,286046992.9,N
1455243455.4,286046993.1,N
1455243475.2,286046991.0,Y
1455243495.0,286046997.1,P
1455243495.9,286046997.1,N
1455243515.8,286046998.4,N
1455243535.6,286046996.6,N
1455243555.4,286046998.7,N
1455243575.3,286046997.7,N
1455243595.1,286046997.8,N
1455243615.8,286046993.3,Y
1455243635.7,286046999.3,P
1455243655.5,286046994.9,P
1455243675.3,286046993.3,P
1455243695.2,286046995.3,N
1455243715.9,286046996.4,N
1455243735.7,286046994.1,Y
1455243755.6,286047001.1,P
1455243775.4,286047001.1,N
1455243795.2,286046997.2,N
1455243815.1,286046997.5,N
1455243816.0,286046997.5,N
1455243835.8,286046998.8,N
1455243855.6,286046998.9,N
1455243875.5,286046998.9,N
1455243895.3,286046996.9,N
1455243915.1,286046999.2,N
1455243935.8,286046998.5,N
1455243955.7,286046997.8,N
1455243975.5,286046995.5,Y
1455243995.4,286046999.6,P
1455244015.2,286046999.5,N
1455244035.0,286046998.0,P
1455244035.9,286046998.0,N
1455244055.8,286046997.8,Y
1455244075.6,286046999.9,P
1455244095.4,286047000.7,N
1455244115.2,286046999.8,N
1455244135.1,286046998.4,N
1455244136.0,286046998.4,N
1455244155.8,286046999.6,N
1455244175.6,286046998.5,N
1455244195.5,286046998.6,N
1455244215.3,286046995.1,Y
1455244235.1,286046998.9,P
1455244255.9,286046997.7,P
1455244275.7,286046996.4,P
1455244295.5,286046992.3,Y
1455244315.4,286046997.5,P
1455244335.2,286046996.1,P
1455244355.0,286046996.2,P
1455244356.0,286046996.2,Y
1455244375.8,286046997.1,P
1455244395.6,286046997.2,P
1455244415.4,286046994.0,P
1455244435.3,286046996.4,N
1455244455.1,286046994.9,Y
1455244475.8,286047001.2,P
1455244495.7,286047000.2,N
1455244515.5,286046999.1,N
1455244535.3,286046996.9,N
1455244555.2,286046997.8,N
1455244575.9,286047000.6,N
1455244595.7,286046998.4,N
1455244615.6,286046999.2,N
1455244635.4,286046998.9,N
1455244655.2,286046996.7,N
1455244675.1,286047000.6,N
1455244676.0,286047000.6,N
1455244695.8,286047002.0,N
1455244715.6,286047001.6,N
1455244735.4,286046999.9,N
1455244755.3,286047000.2,N
1455244775.1,286047002.3,N
1455244795.8,286046996.5,N
1455244815.7,286046996.9,N
1455244835.5,286047001.0,N
1455244855.3,286047005.7,Y
1455244875.2,286047006.2,P
1455244895.0,286047006.5,N
1455244895.9,286047006.5,N
1455244915.7,286047008.1,N
1455244935.6,286047008.8,N
1455244955.4,286047012.2,Y
1455244975.2,286047004.3,P
1455244995.1,286047002.3,N
1455244996.0,286047002.3,N
1455245015.8,286047001.6,N
1455245035.6,286047002.4,N
1455245055.5,286047003.4,N
1455245075.3,286047004.4,Y
1455245095.1,286046999.6,P
1455245115.9,286047001.9,N
1455245135.7,286047004.4,N
1455245155.5,286047004.3,N
1455245175.4,286047002.4,N
1455245195.2,286047001.7,N
1455245215.0,286047001.2,N
1455245215.9,286047001.2,N
1455245235.8,286046999.1,N
1455245255.6,286047000.4,N
1455245275.4,286047000.2,N
1455245295.3,286046999.7,N
1455245315.1,286047001.0,N
1455245316.0,286047001.0,N
1455245335.8,286046999.9,N
1455245355.7,286047000.1,N
1455245375.5,286047002.4,N
1455245395.3,286046999.9,N
1455245415.1,286047002.6,N
1455245435.9,286047005.4,Y
1455245455.7,286047005.0,P
1455245475.5,286047007.3,P
1455245495.4,286047006.2,N
1455245515.2,286047006.1,N
1455245535.0,286047007.9,Y
1455245536.0,286047007.9,P
1455245555.8,286047003.2,N
1455245575.6,286047002.0,N
1455245595.4,286047003.6,N
1455245615.3,286047005.2,N
1455245635.1,286047006.3,Y
1455245655.8,286047001.9,P
1455245675.7,286047002.1,N
1455245695.5,286047003.1,N
1455245715.4,286047003.3,Y
1455245735.2,286047002.6,P
1455245755.0,286046999.3,P
1455245755.9,286046999.3,N
1455245775.7,286046996.7,N
1455245795.6,286047000.6,N
1455245815.4,286047001.6,N
1455245835.2,286047002.2,N
1455245855.1,286047001.3,N
1455245856.0,286047001.3,N
1455245875.8,286047002.0,N
1455245895.6,286047003.8,N
1455245915.5,286047002.5,N
1455245935.3,286047002.3,N
1455245955.1,286047004.6,N
1455245975.9,286047006.7,Y
1455245995.7,286047005.8,P
